Location: Bailleul
(50.3375°N, 2.8513°E)
Time: 04:59:30
(UTC+00:00)

ATLAS 2AS CENTAUR R/B - Pass Details

Date: 19 April 2021
Orbit: 949 x 1263 km, 63.7° (Epoch: 07 May)

Event Time Altitude Azimuth Distance (km) Brightness Sun altitude
Rises 21:05:03 0° 249° (WSW) 4,213 6.1 -18.7°
Reaches altitude 10° 21:08:01 10° 255° (WSW) 3,247 5.6 -19.1°
Maximum altitude 21:15:36 48° 328° (NNW) 1,588 4.0 -19.9°
Drops below altitude 10° 21:22:57 10° 42° (NE) 3,143 5.3 -20.6°
Sets 21:25:47 0° 48° (NE) 4,068 5.8 -20.9°
